Location: Unspecified
(0.0000°N, 0.0000°E)
Time: 20:53:28
(UTC+00:00)

deb Explorer IX - Visible Passes

Search period start: 01 March 2015 00:00
Search period end: 11 March 2015 00:00
Orbit: 551 x 1173 km, 38.8° (Epoch: 28 February)

Date Brightness Start Highest point End Pass type
(mag) Time Alt. Az. Time Alt. Az. Time Alt. Az.
01 Mar ? 20:04:15 10° SSW 20:05:40 17° S 20:05:40 17° S visible
02 Mar ? 19:53:26 10° SSW 19:56:02 25° S 19:56:02 25° S visible
03 Mar ? 19:42:39 10° SSW 19:46:26 37° SSE 19:46:26 37° SSE visible
04 Mar ? 19:31:52 10° SSW 19:36:17 49° SE 19:36:53 46° ESE visible
05 Mar ? 19:21:08 10° SW 19:25:34 64° SE 19:27:23 37° ENE visible
06 Mar ? 19:10:24 10° SW 19:14:49 84° SE 19:17:53 23° NE visible
07 Mar ? 18:59:42 10° SW 19:04:01 74° NW 19:08:24 13° NE visible
08 Mar ? 04:14:44 10° NNE 04:17:14 12° NNE 04:20:10 10° NE visible
08 Mar ? 18:49:01 10° WSW 18:53:13 55° NW 18:57:57 10° NE visible
09 Mar ? 04:02:36 10° N 04:06:24 15° NE 04:10:33 10° ENE visible
09 Mar ? 05:47:47 10° NW 05:55:23 66° NE 06:02:25 10° ESE visible
09 Mar ? 18:38:21 10° WSW 18:42:22 41° NW 18:46:49 10° NNE visible
10 Mar ? 03:51:46 12° N 03:55:30 18° NE 04:00:29 10° ENE visible
10 Mar ? 05:36:37 10° NW 05:44:19 78° NE 05:51:31 10° SE visible
10 Mar ? 18:27:45 10° WSW 18:31:30 30° NW 18:35:34 10° NNE visible
